Voltar ao catálogo

STARLINK-5413

AtivoComunicaçõesVLEO
NORAD 54808·PAYLOAD·🇺🇸 United States

Lançado Dec 17, 2022 de Cape Canaveral Space Force Station

Loading…

Próximas Passagens (próximas 24 horas)

TLE

AtualizadoSource: CelesTrak SupGP

Época: Sep 15, 2026, 02:29 UTC

1 54808C 22175BC  26258.10395833  .00692510  00000+0  25089-1 0  2582
2 54808  53.1609 242.4963 0001320  93.4608 351.5989 15.27494333    19

Acompanhe STARLINK-5413 em tempo real com AllMySat

Download on the App Store